AMQ6019 LGKR-EPKT

Flight info

Callsign AMQ6019
Flight time 1h 45m
Altitude 18000
Route NIKRO M127 OVVER/N0453F340 DCT ALELU/N0449F360 DCT RISTU DCT PARAK DCT LITKU DCT REDSI/N0447F370 DCT MEBAN
Aircraft A320/M-SDE3FGHIRWY/LB1

Departure

Time 2026-05-05 17:12
Airport Corfu Ioannis Kapodistrias International Airport (LGKR)

Arrival

Time 2026-05-05 18:57
Airport Katowice Wojciech Korfanty International Airport (EPKT)
Time Latitude Longitude Altitude Speed Heading
2026-05-05 16:47 39.60767 19.91347 9 ft 0 kts 78°
2026-05-05 17:05 39.60765 19.91334 9 ft 3 kts 78°
2026-05-05 17:05 39.60761 19.91309 9 ft 3 kts 78°
2026-05-05 17:05 39.60757 19.91283 10 ft 3 kts 77°
2026-05-05 17:05 39.60752 19.91258 11 ft 3 kts 69°
2026-05-05 17:06 39.60744 19.91235 10 ft 3 kts 57°
2026-05-05 17:06 39.60732 19.91216 11 ft 3 kts 29°
2026-05-05 17:06 39.60718 19.91210 10 ft 1 kts 347°
2026-05-05 17:06 39.60712 19.91211 9 ft 0 kts 346°
2026-05-05 17:07 39.60713 19.91211 9 ft 0 kts 346°
2026-05-05 17:10 39.60735 19.91205 11 ft 15 kts 347°
2026-05-05 17:10 39.60884 19.91167 11 ft 23 kts 349°
2026-05-05 17:10 39.61044 19.91127 9 ft 23 kts 348°
2026-05-05 17:10 39.61189 19.91082 11 ft 17 kts 332°
2026-05-05 17:11 39.61189 19.90974 11 ft 13 kts 222°
2026-05-05 17:11 39.61094 19.90982 10 ft 22 kts 169°
2026-05-05 17:11 39.60683 19.91085 8 ft 100 kts 168°
2026-05-05 17:11 39.59765 19.91320 47 ft 160 kts 169°
2026-05-05 17:12 39.58691 19.91611 735 ft 159 kts 164°
2026-05-05 17:12 39.57754 19.92341 1498 ft 162 kts 131°
2026-05-05 17:12 39.57200 19.93613 2048 ft 168 kts 118°
2026-05-05 17:12 39.56444 19.94874 2244 ft 188 kts 138°
2026-05-05 17:13 39.55404 19.96060 2486 ft 210 kts 142°
2026-05-05 17:13 39.54225 19.97309 2888 ft 224 kts 142°
2026-05-05 17:13 39.53005 19.98570 3609 ft 225 kts 142°
2026-05-05 17:13 39.51880 20.00121 3938 ft 250 kts 121°
2026-05-05 17:14 39.51383 20.02345 4351 ft 268 kts 88°
2026-05-05 17:14 39.51914 20.04654 5078 ft 274 kts 55°
2026-05-05 17:14 39.53349 20.06241 5842 ft 276 kts 21°
2026-05-05 17:14 39.55232 20.06607 6643 ft 277 kts 358°
2026-05-05 17:15 39.57169 20.06522 7442 ft 279 kts 357°
2026-05-05 17:15 39.59115 20.06403 8224 ft 281 kts 356°
2026-05-05 17:15 39.61074 20.06274 9017 ft 283 kts 356°
2026-05-05 17:15 39.63053 20.06150 9815 ft 286 kts 356°
2026-05-05 17:16 39.65054 20.06033 10399 ft 296 kts 356°
2026-05-05 17:16 39.67196 20.05913 10576 ft 319 kts 356°
2026-05-05 17:16 39.69493 20.05790 10709 ft 342 kts 357°
2026-05-05 17:16 39.71920 20.05661 11107 ft 354 kts 357°
2026-05-05 17:17 39.74400 20.05530 11731 ft 358 kts 357°
2026-05-05 17:17 39.76899 20.05400 12405 ft 361 kts 356°
2026-05-05 17:17 39.79415 20.05266 13093 ft 364 kts 356°
2026-05-05 17:17 39.81955 20.05129 13757 ft 367 kts 356°
2026-05-05 17:18 39.84514 20.04992 14337 ft 370 kts 356°
2026-05-05 17:18 39.87062 20.04858 14911 ft 372 kts 356°
2026-05-05 17:18 39.89695 20.04720 15495 ft 375 kts 356°
2026-05-05 17:18 39.92274 20.04585 16078 ft 377 kts 356°
2026-05-05 17:19 39.94911 20.04447 16654 ft 380 kts 355°
2026-05-05 17:19 39.97556 20.04303 17227 ft 382 kts 355°
2026-05-05 17:19 40.00224 20.04156 17809 ft 385 kts 355°
2026-05-05 17:19 40.02901 20.04011 18362 ft 388 kts 355°
2026-05-05 17:20 40.05609 20.03869 18870 ft 390 kts 355°
2026-05-05 17:20 40.08330 20.03729 19375 ft 393 kts 355°
2026-05-05 17:20 40.11070 20.03588 19870 ft 395 kts 355°
2026-05-05 17:20 40.13822 20.03445 20364 ft 397 kts 355°
2026-05-05 17:21 40.16595 20.03297 20824 ft 400 kts 355°
2026-05-05 17:21 40.19390 20.03145 21245 ft 403 kts 354°
2026-05-05 17:21 40.22196 20.02991 21707 ft 404 kts 354°
2026-05-05 17:22 40.27848 20.02689 22535 ft 408 kts 354°
2026-05-05 17:22 40.30652 20.02539 22951 ft 410 kts 354°
2026-05-05 17:22 40.33511 20.02386 23370 ft 412 kts 354°
2026-05-05 17:22 40.36378 20.02236 23756 ft 414 kts 354°
2026-05-05 17:23 40.39263 20.02086 24090 ft 416 kts 354°
2026-05-05 17:23 40.42164 20.01929 24439 ft 417 kts 354°
2026-05-05 17:23 40.45067 20.01774 24790 ft 418 kts 354°
2026-05-05 17:23 40.47976 20.01618 25098 ft 419 kts 354°
2026-05-05 17:24 40.50896 20.01459 25412 ft 420 kts 353°
2026-05-05 17:24 40.53828 20.01303 25727 ft 422 kts 353°
2026-05-05 17:24 40.56760 20.01129 26017 ft 423 kts 353°
2026-05-05 17:24 40.59703 20.00904 26321 ft 424 kts 352°
2026-05-05 17:25 40.62616 20.00648 26605 ft 425 kts 352°
2026-05-05 17:25 40.64609 20.00465 26798 ft 426 kts 352°
2026-05-05 17:25 40.68543 20.00108 27131 ft 429 kts 352°
2026-05-05 17:25 40.71536 19.99849 27395 ft 431 kts 352°
2026-05-05 17:26 40.74532 19.99601 27659 ft 432 kts 352°
2026-05-05 17:26 40.77540 19.99354 27912 ft 433 kts 352°
2026-05-05 17:26 40.80554 19.99112 28166 ft 434 kts 352°
2026-05-05 17:26 40.83578 19.98870 28413 ft 436 kts 352°
2026-05-05 17:27 40.86608 19.98625 28645 ft 437 kts 352°
2026-05-05 17:27 40.89652 19.98376 28864 ft 438 kts 352°
2026-05-05 17:27 40.92693 19.98129 29177 ft 437 kts 351°
2026-05-05 17:27 40.95691 19.97885 29491 ft 436 kts 351°
2026-05-05 17:28 40.98716 19.97637 29805 ft 435 kts 351°
2026-05-05 17:28 41.01724 19.97391 30127 ft 433 kts 351°
2026-05-05 17:28 41.04729 19.97147 30402 ft 432 kts 351°
2026-05-05 17:28 41.07718 19.96901 30669 ft 430 kts 351°
2026-05-05 17:29 41.10699 19.96652 30938 ft 429 kts 351°
2026-05-05 17:29 41.13680 19.96402 31214 ft 428 kts 350°
2026-05-05 17:29 41.16645 19.96156 31488 ft 426 kts 350°
2026-05-05 17:29 41.19602 19.95912 31740 ft 425 kts 350°
2026-05-05 17:30 41.22550 19.95670 32029 ft 424 kts 350°
2026-05-05 17:30 41.25491 19.95425 32333 ft 422 kts 350°
2026-05-05 17:30 41.28418 19.95179 32628 ft 421 kts 350°
2026-05-05 17:30 41.31332 19.94936 32904 ft 420 kts 350°
2026-05-05 17:31 41.34248 19.94693 33188 ft 418 kts 349°
2026-05-05 17:31 41.37145 19.94450 33447 ft 417 kts 349°
2026-05-05 17:31 41.40037 19.94206 33675 ft 417 kts 349°
2026-05-05 17:31 41.42895 19.93965 33912 ft 416 kts 349°
2026-05-05 17:32 41.45812 19.93721 34184 ft 415 kts 349°
2026-05-05 17:32 41.48659 19.93486 34379 ft 415 kts 349°
2026-05-05 17:32 41.51535 19.93250 34566 ft 415 kts 349°
2026-05-05 17:32 41.54420 19.93013 34766 ft 415 kts 349°
2026-05-05 17:33 41.57295 19.92774 34961 ft 414 kts 349°
2026-05-05 17:33 41.60174 19.92530 35080 ft 415 kts 349°
2026-05-05 17:33 41.63053 19.92286 35108 ft 414 kts 349°
2026-05-05 17:34 41.68798 19.91802 35113 ft 414 kts 350°
2026-05-05 17:34 41.74562 19.91314 35109 ft 415 kts 350°
2026-05-05 17:35 41.80338 19.90820 35106 ft 416 kts 350°
2026-05-05 17:35 41.86114 19.90331 35101 ft 416 kts 350°
2026-05-05 17:36 41.91911 19.89849 35097 ft 418 kts 350°
2026-05-05 17:36 41.97710 19.89355 35097 ft 418 kts 350°
2026-05-05 17:37 42.03513 19.88856 35097 ft 417 kts 350°
2026-05-05 17:37 42.09274 19.88364 35100 ft 419 kts 351°
2026-05-05 17:38 42.15139 19.87868 35097 ft 420 kts 351°
2026-05-05 17:38 42.20930 19.87377 35096 ft 419 kts 351°
2026-05-05 17:39 42.26748 19.86879 35093 ft 419 kts 351°
2026-05-05 17:39 42.32577 19.86372 35092 ft 421 kts 351°
2026-05-05 17:40 42.38428 19.85877 35091 ft 421 kts 351°
2026-05-05 17:40 42.44279 19.85382 35090 ft 421 kts 351°
2026-05-05 17:41 42.50157 19.85217 35090 ft 427 kts 358°
2026-05-05 17:41 42.56098 19.85664 35084 ft 428 kts 358°
2026-05-05 17:42 42.62038 19.86118 35085 ft 428 kts 358°
2026-05-05 17:42 42.66975 19.86490 35093 ft 428 kts 358°
2026-05-05 17:43 42.72945 19.86936 35076 ft 430 kts 358°
2026-05-05 17:43 42.78920 19.87393 35068 ft 430 kts 358°
2026-05-05 17:44 42.84903 19.87853 35061 ft 430 kts 358°
2026-05-05 17:44 42.90892 19.88305 35060 ft 431 kts 358°
2026-05-05 17:45 42.96887 19.88761 35042 ft 431 kts 358°
2026-05-05 17:45 43.02879 19.89217 35035 ft 431 kts 358°
2026-05-05 17:46 43.08876 19.89671 35028 ft 431 kts 358°
2026-05-05 17:46 43.14820 19.90131 35036 ft 431 kts 358°
2026-05-05 17:47 43.20808 19.90592 35035 ft 431 kts 358°
2026-05-05 17:47 43.26809 19.91052 35030 ft 433 kts 358°
2026-05-05 17:48 43.32826 19.91514 35026 ft 433 kts 358°
2026-05-05 17:48 43.38852 19.91983 35013 ft 433 kts 359°
2026-05-05 17:49 43.44878 19.92452 35025 ft 435 kts 359°
2026-05-05 17:49 43.50930 19.92919 35013 ft 436 kts 359°
2026-05-05 17:50 43.56989 19.93392 35005 ft 436 kts 359°
2026-05-05 17:50 43.63063 19.93868 35004 ft 437 kts 359°
2026-05-05 17:51 43.69143 19.94336 35003 ft 438 kts 359°
2026-05-05 17:51 43.75235 19.94809 35001 ft 438 kts 359°
2026-05-05 17:52 43.81283 19.95290 34997 ft 439 kts 359°
2026-05-05 17:52 43.87402 19.95777 34986 ft 440 kts 359°
2026-05-05 17:53 43.93521 19.96256 34977 ft 441 kts 359°
2026-05-05 17:53 43.99645 19.96735 34980 ft 441 kts 359°
2026-05-05 17:54 44.05784 19.97221 34975 ft 443 kts 359°
2026-05-05 17:54 44.11941 19.97708 34973 ft 443 kts 359°
2026-05-05 17:55 44.18102 19.98193 34967 ft 443 kts 359°
2026-05-05 17:55 44.24262 19.98681 34961 ft 444 kts 359°
2026-05-05 17:56 44.30400 19.99175 35213 ft 444 kts 359°
2026-05-05 17:56 44.33476 19.99421 35412 ft 443 kts 359°
2026-05-05 17:56 44.36547 19.99666 35608 ft 442 kts 359°
2026-05-05 17:56 44.39614 19.99912 35814 ft 441 kts 360°
2026-05-05 17:57 44.42676 20.00160 36035 ft 440 kts 360°
2026-05-05 17:57 44.45725 20.00407 36223 ft 438 kts 360°
2026-05-05 17:57 44.48775 20.00653 36390 ft 438 kts 360°
2026-05-05 17:57 44.51812 20.00895 36555 ft 437 kts 360°
2026-05-05 17:58 44.54850 20.01135 36709 ft 437 kts 360°
2026-05-05 17:58 44.57881 20.01376 36883 ft 436 kts
2026-05-05 17:58 44.60916 20.01622 36944 ft 437 kts
2026-05-05 17:59 44.67003 20.02112 36946 ft 439 kts
2026-05-05 17:59 44.73122 20.02601 36948 ft 441 kts
2026-05-05 18:00 44.79243 20.03050 36954 ft 440 kts 360°
2026-05-05 18:00 44.85358 20.03320 36951 ft 439 kts 359°
2026-05-05 18:01 44.91471 20.03548 36947 ft 439 kts 359°
2026-05-05 18:01 44.97539 20.03801 36947 ft 439 kts 359°
2026-05-05 18:02 45.03651 20.04082 36947 ft 440 kts 359°
2026-05-05 18:02 45.09765 20.04376 36951 ft 440 kts 359°
2026-05-05 18:03 45.15879 20.04668 36948 ft 439 kts 359°
2026-05-05 18:03 45.21990 20.04952 36955 ft 439 kts 359°
2026-05-05 18:04 45.28089 20.05236 36955 ft 439 kts 359°
2026-05-05 18:04 45.34195 20.05515 36943 ft 439 kts 359°
2026-05-05 18:05 45.40304 20.05799 36944 ft 439 kts 359°
2026-05-05 18:05 45.46426 20.06086 36932 ft 440 kts 359°
2026-05-05 18:06 45.52542 20.06377 36931 ft 440 kts 359°
2026-05-05 18:06 45.58656 20.06663 36942 ft 440 kts 359°
2026-05-05 18:07 45.64791 20.06950 36927 ft 441 kts 359°
2026-05-05 18:07 45.70888 20.07236 36935 ft 442 kts 359°
2026-05-05 18:08 45.77046 20.07535 36946 ft 442 kts 359°
2026-05-05 18:08 45.83204 20.07822 36953 ft 443 kts 359°
2026-05-05 18:09 45.89365 20.08116 36934 ft 443 kts 359°
2026-05-05 18:09 45.95530 20.08419 36932 ft 444 kts 359°
2026-05-05 18:10 46.01713 20.08713 36951 ft 444 kts 359°
2026-05-05 18:10 46.07895 20.09004 36946 ft 444 kts 359°
2026-05-05 18:11 46.14041 20.09301 36947 ft 444 kts 360°
2026-05-05 18:11 46.20153 20.08549 36939 ft 441 kts 348°
2026-05-05 18:12 46.26218 20.07137 36942 ft 441 kts 349°
2026-05-05 18:12 46.32278 20.05749 36939 ft 441 kts 349°
2026-05-05 18:13 46.38336 20.04344 36941 ft 441 kts 349°
2026-05-05 18:13 46.44399 20.02931 36945 ft 441 kts 349°
2026-05-05 18:14 46.50449 20.01520 36938 ft 441 kts 349°
2026-05-05 18:14 46.56512 20.00107 36936 ft 441 kts 349°
2026-05-05 18:15 46.62569 19.98684 36932 ft 441 kts 349°
2026-05-05 18:15 46.68595 19.97270 36939 ft 441 kts 349°
2026-05-05 18:16 46.74672 19.95837 36935 ft 441 kts 349°
2026-05-05 18:16 46.80737 19.94402 36933 ft 442 kts 349°
2026-05-05 18:17 46.86803 19.92967 36929 ft 442 kts 349°
2026-05-05 18:17 46.92879 19.91527 36935 ft 442 kts 349°
2026-05-05 18:18 46.98953 19.90084 36927 ft 442 kts 349°
2026-05-05 18:18 47.04994 19.88646 36926 ft 442 kts 349°
2026-05-05 18:19 47.11067 19.87192 36926 ft 442 kts 349°
2026-05-05 18:19 47.17145 19.85741 36928 ft 443 kts 349°
2026-05-05 18:20 47.23228 19.84275 36931 ft 443 kts 349°
2026-05-05 18:20 47.29323 19.82813 36935 ft 443 kts 349°
2026-05-05 18:21 47.35404 19.81361 36937 ft 443 kts 349°
2026-05-05 18:21 47.41497 19.79896 36931 ft 443 kts 349°
2026-05-05 18:22 47.47582 19.78417 36933 ft 443 kts 349°
2026-05-05 18:22 47.53669 19.76939 36932 ft 444 kts 349°
2026-05-05 18:23 47.59768 19.75454 36941 ft 444 kts 349°
2026-05-05 18:23 47.65821 19.73977 36936 ft 444 kts 349°
2026-05-05 18:24 47.71911 19.72492 36931 ft 443 kts 349°
2026-05-05 18:24 47.78002 19.71003 36926 ft 444 kts 349°
2026-05-05 18:25 47.84098 19.69503 36933 ft 444 kts 349°
2026-05-05 18:25 47.90195 19.68001 36928 ft 444 kts 349°
2026-05-05 18:26 47.96289 19.66495 36929 ft 444 kts 349°
2026-05-05 18:26 48.02391 19.64979 36932 ft 446 kts 349°
2026-05-05 18:27 48.08515 19.63456 36941 ft 446 kts 349°
2026-05-05 18:27 48.14634 19.61947 36942 ft 445 kts 349°
2026-05-05 18:28 48.23830 19.59922 36933 ft 447 kts 357°
2026-05-05 18:28 48.30027 19.60114 36938 ft 448 kts 360°
2026-05-05 18:29 48.36255 19.60382 36927 ft 448 kts 360°
2026-05-05 18:29 48.42489 19.60641 36930 ft 449 kts 360°
2026-05-05 18:30 48.48749 19.60888 36934 ft 449 kts 359°
2026-05-05 18:30 48.55002 19.61135 36948 ft 450 kts 360°
2026-05-05 18:31 48.61253 19.61392 36942 ft 450 kts 359°
2026-05-05 18:31 48.67515 19.61647 36944 ft 450 kts 359°
2026-05-05 18:32 48.73789 19.61904 36409 ft 450 kts 360°
2026-05-05 18:32 48.76918 19.62030 35891 ft 449 kts 360°
2026-05-05 18:32 48.80041 19.62159 35378 ft 450 kts 359°
2026-05-05 18:33 48.82121 19.62245 35055 ft 450 kts 359°
2026-05-05 18:33 48.86278 19.62415 34401 ft 451 kts 359°
2026-05-05 18:33 48.89420 19.62543 33930 ft 453 kts 358°
2026-05-05 18:33 48.92566 19.62671 33381 ft 454 kts 359°
2026-05-05 18:34 48.94708 19.62759 33016 ft 455 kts 358°
2026-05-05 18:34 48.97844 19.62889 32490 ft 457 kts 358°
2026-05-05 18:34 49.01042 19.63022 31967 ft 461 kts 357°
2026-05-05 18:34 49.04241 19.63155 31455 ft 458 kts 359°
2026-05-05 18:35 49.07403 19.63287 30951 ft 452 kts 359°
2026-05-05 18:35 49.10543 19.63416 30439 ft 449 kts 359°
2026-05-05 18:35 49.13660 19.63546 29964 ft 449 kts 358°
2026-05-05 18:35 49.16813 19.63678 29384 ft 459 kts 358°
2026-05-05 18:36 49.20049 19.63805 28819 ft 469 kts 359°
2026-05-05 18:36 49.23325 19.63937 28269 ft 472 kts 360°
2026-05-05 18:36 49.26609 19.64068 27730 ft 470 kts 359°
2026-05-05 18:36 49.29866 19.64182 27214 ft 467 kts 359°
2026-05-05 18:37 49.33112 19.64285 26682 ft 464 kts 359°
2026-05-05 18:37 49.36282 19.64379 26186 ft 460 kts 359°
2026-05-05 18:37 49.39474 19.64687 25676 ft 459 kts
2026-05-05 18:37 49.42579 19.65752 25187 ft 457 kts 16°
2026-05-05 18:38 49.45565 19.67576 24701 ft 456 kts 24°
2026-05-05 18:38 49.48491 19.69365 24209 ft 450 kts 11°
2026-05-05 18:38 49.51528 19.69686 23755 ft 442 kts 353°
2026-05-05 18:38 49.54558 19.68754 23260 ft 437 kts 344°
2026-05-05 18:39 49.57474 19.67689 22722 ft 436 kts 345°
2026-05-05 18:39 49.60469 19.66694 22184 ft 433 kts 346°
2026-05-05 18:39 49.63356 19.65792 21674 ft 427 kts 347°
2026-05-05 18:39 49.66276 19.64898 21139 ft 429 kts 346°
2026-05-05 18:40 49.69202 19.63994 20631 ft 428 kts 346°
2026-05-05 18:40 49.72122 19.63076 20135 ft 426 kts 347°
2026-05-05 18:40 49.75016 19.62149 19635 ft 425 kts 347°
2026-05-05 18:40 49.77908 19.61209 19107 ft 424 kts 347°
2026-05-05 18:41 49.80791 19.60265 18636 ft 423 kts 347°
2026-05-05 18:41 49.83666 19.59324 18168 ft 420 kts 347°
2026-05-05 18:41 49.86509 19.58391 17627 ft 417 kts 347°
2026-05-05 18:41 49.89346 19.57459 17100 ft 416 kts 347°
2026-05-05 18:42 49.92167 19.56530 16581 ft 413 kts 347°
2026-05-05 18:42 49.94977 19.55608 16070 ft 411 kts 347°
2026-05-05 18:42 49.97763 19.54696 15562 ft 408 kts 347°
2026-05-05 18:42 50.00534 19.53791 15067 ft 405 kts 347°
2026-05-05 18:43 50.03277 19.52896 14583 ft 402 kts 347°
2026-05-05 18:43 50.06009 19.52001 14117 ft 398 kts 347°
2026-05-05 18:43 50.08702 19.51115 13643 ft 395 kts 347°
2026-05-05 18:43 50.11383 19.50231 13115 ft 391 kts 347°
2026-05-05 18:44 50.14030 19.49360 12587 ft 387 kts 347°
2026-05-05 18:44 50.16658 19.48495 12084 ft 383 kts 346°
2026-05-05 18:44 50.19253 19.47639 11576 ft 380 kts 346°
2026-05-05 18:44 50.21821 19.46791 11057 ft 377 kts 346°
2026-05-05 18:45 50.24351 19.45954 10854 ft 364 kts 346°
2026-05-05 18:45 50.26778 19.45149 10735 ft 350 kts 346°
2026-05-05 18:45 50.29114 19.44370 10604 ft 337 kts 346°
2026-05-05 18:45 50.31342 19.43626 10449 ft 317 kts 346°
2026-05-05 18:46 50.33453 19.42932 10083 ft 304 kts 348°
2026-05-05 18:46 50.35526 19.42956 9720 ft 295 kts 14°
2026-05-05 18:46 50.37370 19.44361 9307 ft 300 kts 40°
2026-05-05 18:46 50.38774 19.46757 8572 ft 299 kts 54°
2026-05-05 18:47 50.39973 19.49337 8107 ft 290 kts 56°
2026-05-05 18:47 50.41111 19.51868 7705 ft 280 kts 56°
2026-05-05 18:47 50.42238 19.54400 6868 ft 289 kts 56°
2026-05-05 18:47 50.43392 19.57026 6146 ft 292 kts 56°
2026-05-05 18:48 50.44530 19.59623 5597 ft 286 kts 57°
2026-05-05 18:48 50.45691 19.62148 4975 ft 285 kts 47°
2026-05-05 18:48 50.47286 19.63912 4356 ft 281 kts 18°
2026-05-05 18:48 50.49142 19.64271 4051 ft 262 kts 345°
2026-05-05 18:49 50.50783 19.63195 3987 ft 251 kts 315°
2026-05-05 18:49 50.52062 19.61346 3998 ft 249 kts 308°
2026-05-05 18:49 50.53262 19.59384 3998 ft 249 kts 307°
2026-05-05 18:49 50.54442 19.57382 3998 ft 247 kts 301°
2026-05-05 18:50 50.55121 19.55031 4000 ft 232 kts 271°
2026-05-05 18:50 50.54864 19.52637 4002 ft 221 kts 238°
2026-05-05 18:50 50.54089 19.50542 4000 ft 223 kts 237°
2026-05-05 18:50 50.53342 19.48471 3996 ft 211 kts 238°
2026-05-05 18:51 50.52649 19.46538 3993 ft 196 kts 237°
2026-05-05 18:51 50.51993 19.44712 4002 ft 189 kts 237°
2026-05-05 18:51 50.51350 19.42928 4002 ft 186 kts 237°
2026-05-05 18:51 50.50720 19.41180 4033 ft 181 kts 237°
2026-05-05 18:52 50.50118 19.39508 4008 ft 173 kts 237°
2026-05-05 18:52 50.49528 19.37872 4001 ft 171 kts 237°
2026-05-05 18:52 50.48947 19.36261 4004 ft 169 kts 237°
2026-05-05 18:52 50.48365 19.34652 3943 ft 169 kts 236°
2026-05-05 18:53 50.47868 19.32970 3794 ft 171 kts 248°
2026-05-05 18:53 50.47643 19.31111 3610 ft 176 kts 257°
2026-05-05 18:53 50.47567 19.29186 3393 ft 175 kts 261°
2026-05-05 18:53 50.47549 19.27288 3172 ft 173 kts 262°
2026-05-05 18:54 50.47548 19.25423 2936 ft 169 kts 262°
2026-05-05 18:54 50.47554 19.23626 2724 ft 159 kts 262°
2026-05-05 18:54 50.47561 19.21963 2532 ft 145 kts 262°
2026-05-05 18:54 50.47565 19.20398 2344 ft 141 kts 262°
2026-05-05 18:55 50.47569 19.18874 2161 ft 139 kts 263°
2026-05-05 18:55 50.47574 19.17359 1981 ft 138 kts 263°
2026-05-05 18:55 50.47578 19.15848 1788 ft 140 kts 264°
2026-05-05 18:55 50.47582 19.14334 1594 ft 144 kts 268°
2026-05-05 18:56 50.47587 19.12746 1404 ft 146 kts 267°
2026-05-05 18:56 50.47600 19.11156 1195 ft 146 kts 268°
2026-05-05 18:56 50.47600 19.09585 1011 ft 139 kts 267°
2026-05-05 18:56 50.47601 19.08263 991 ft 97 kts 270°
2026-05-05 18:57 50.47600 19.07476 988 ft 50 kts 269°
2026-05-05 18:57 50.47572 19.07101 991 ft 27 kts 245°
2026-05-05 18:57 50.47535 19.06976 985 ft 0 kts 243°
2026-05-05 18:58 50.47526 19.06948 990 ft 11 kts 242°
2026-05-05 18:59 50.47482 19.06825 988 ft 14 kts 239°
2026-05-05 18:59 50.47426 19.06677 984 ft 17 kts 238°
2026-05-05 18:59 50.47314 19.06628 989 ft 18 kts 179°
2026-05-05 18:59 50.47235 19.06713 987 ft 16 kts 90°
2026-05-05 19:00 50.47238 19.06884 982 ft 16 kts 90°
2026-05-05 19:00 50.47237 19.07053 983 ft 16 kts 92°
2026-05-05 19:00 50.47232 19.07228 989 ft 16 kts 92°
2026-05-05 19:00 50.47227 19.07359 990 ft 0 kts 97°
2026-05-05 19:01 50.47218 19.07365 987 ft 4 kts 160°
2026-05-05 19:01 50.47186 19.07347 986 ft 6 kts 207°
2026-05-05 19:01 50.47177 19.07339 986 ft 0 kts 207°